St Gallen Altenrhein Airport LSZR

Flugplatz Daten

Name: St Gallen Altenrhein Airport

Ident: LSZR

Lat: 47,48500061

Long: 9,560770035

Platzhöhe: 1306 ft

IataCode: ACH

City: Altenrhein

Metar

2021/10/25 19:50
LSZR 251950Z AUTO 12004KT 9999 NCD 06/06 Q1022

Taf

Gewünschte Webcam nicht vorhanden? Dann fügen Sie eine hinzu. Sie wird dann so schnell wie möglich freigeschaltet
Url: Title: